Wind_Speed
14 15 15 16 16 17 17 17 17 17 18 19 19 19 19 19 18 19 19 20 19 19 19 20 20 20 20 20 21 20 21 21 21 21 20 20 19 19
16 16 17 17 18 18 18 19 20 19 19 19 20 20 21 21 21 21 21 21 21 21 21 21 21 21 21 21 21 21 20 21 22 22 21 21 21 20
18 18 18 19 19 20 20 21 21 21 21 20 21 21 21 22 22 22 22 22 22 22 22 22 22 22 22 22 22 22 22 22 23 23 23 22 22 22
19 19 19 20 20 21 21 21 22 22 22 22 22 23 23 23 24 24 23 23 23 23 23 23 23 24 23 23 24 24 24 24 24 25 25 24 24 24
21 21 22 22 22 23 23 23 23 23 23 24 24 24 25 25 25 25 25 25 25 24 24 24 25 25 24 24 25 25 25 25 26 26 25 25 26 25
23 23 24 24 24 24 25 25 25 25 26 26 25 26 26 26 26 26 26 26 26 25 25 26 26 26 26 26 27 26 26 26 27 27 26 26 27 27
25 26 26 26 26 26 26 27 27 27 27 27 27 27 27 27 27 26 26 27 27 27 27 27 27 28 28 28 28 28 28 28 28 28 28 28 28 28
26 26 27 27 27 28 28 28 28 28 28 28 28 28 28 28 28 27 27 27 27 27 28 28 28 29 29 29 28 28 28 28 29 29 29 29 29 29
27 27 27 27 28 29 29 29 29 29 30 30 30 30 30 30 30 29 29 29 28 28 29 28 28 27 28 29 29 29 30 30 30 29 30 30 30 30
28 28 28 29 29 29 30 29 29 29 30 31 31 30 30 31 31 30 30 30 29 29 29 29 29 28 28 28 28 30 30 30 30 30 30 31 31 31
28 29 29 30 30 30 31 31 30 30 30 31 31 31 31 31 31 31 30 30 30 29 29 29 29 29 29 28 29 29 29 29 29 29 30 30 30 31
28 29 29 29 29 30 31 31 31 31 31 30 30 31 30 30 30 31 31 31 31 30 30 30 30 30 30 29 29 29 29 29 29 30 30 30 30 31
28 28 28 29 30 30 31 32 32 31 30 30 30 31 31 31 31 31 31 31 32 32 31 32 32 32 31 31 30 30 29 29 29 30 30 31 31 30
28 29 29 30 31 31 31 31 31 31 31 30 30 30 30 30 31 30 31 31 31 32 31 31 31 31 31 30 29 30 29 29 30 30 30 30 29 30
29 30 30 30 30 31 31 31 31 31 31 31 30 29 28 28 30 31 30 30 30 30 29 30 30 30 30 31 30 30 30 29 29 29 29 29 29 29
30 30 30 31 31 31 31 31 30 30 30 30 30 29 29 28 29 29 29 29 29 29 29 29 29 29 29 30 30 30 30 29 28 28 28 29 29 29
29 29 29 30 31 31 31 31 30 29 29 30 30 30 29 29 29 29 29 28 28 27 27 28 28 29 30 30 30 30 30 29 29 29 28 28 28 29
29 29 30 30 31 31 31 30 30 30 30 30 31 30 30 30 29 29 29 29 29 29 29 28 28 28 28 29 29 29 30 29 28 28 28 28 28 28
29 29 29 29 29 29 29 30 30 31 31 32 32 31 30 30 30 29 29 29 29 29 29 29 29 29 29 29 29 30 31 31 31 30 30 30 30 30
29 29 29 29 29 29 29 29 30 30 30 31 31 31 31 30 29 29 28 29 29 29 29 29 30 30 30 30 30 30 31 32 31 31 31 31 30 29
29 29 29 29 29 29 29 29 30 30 30 31 31 31 30 29 29 28 28 29 29 29 30 30 30 30 31 31 30 30 30 30 31 30 30 30 29 28
29 29 29 29 30 29 29 30 30 30 30 30 31 31 30 29 28 28 29 29 28 28 29 29 30 30 30 30 29 29 29 29 29 29 29 29 28 27
29 29 29 30 30 29 29 29 29 29 29 29 28 28 28 28 28 28 29 29 29 29 29 29 30 30 30 29 29 29 29 28 28 28 28 28 27 26
Wind_Direction
287 285 285 285 282 282 281 281 282 281 280 277 274 274 272 274 276 279 280 281 282 284 284 283 282 281 281 282 281 280 280 279 279 278 279 279 279 278
287 286 284 281 282 281 281 282 282 283 281 279 277 276 273 274 277 280 281 281 281 282 282 282 281 281 282 283 283 280 280 280 278 278 279 278 278 278
286 286 283 281 282 282 283 283 283 282 279 278 278 278 278 277 278 279 279 281 281 283 283 281 280 282 283 283 282 281 280 281 280 279 279 278 278 277
288 287 287 285 283 282 283 284 283 281 280 280 280 280 279 279 280 280 280 282 281 282 283 282 281 281 282 281 282 281 281 281 281 279 279 278 277 276
288 287 288 288 285 283 283 284 284 282 281 280 281 280 280 280 280 280 280 281 281 280 281 282 281 280 280 281 282 282 280 281 282 281 278 277 276 275
286 287 287 288 287 284 284 283 283 282 282 281 280 280 280 280 280 280 280 280 280 279 279 280 280 279 280 280 280 280 281 281 281 279 277 277 276 274
286 286 286 287 287 286 285 283 282 282 282 281 281 281 280 279 280 281 281 280 280 280 280 281 280 279 279 279 279 279 279 280 279 277 276 275 274 274
287 287 285 286 288 287 285 283 282 282 282 282 282 282 281 280 280 280 282 281 281 281 282 283 281 279 279 279 279 279 280 280 279 276 275 275 274 273
287 288 287 287 287 289 285 283 283 283 283 283 283 282 281 280 280 280 281 282 282 281 281 282 283 281 280 279 278 279 279 278 277 276 276 276 274 272
284 285 287 287 287 288 289 286 285 285 283 282 281 280 280 279 279 279 280 281 282 281 282 282 284 284 281 279 277 277 278 277 277 276 276 277 276 273
286 285 286 286 288 289 289 289 287 287 285 284 282 280 278 278 278 278 279 279 279 280 281 281 282 282 281 279 279 280 279 279 278 277 277 277 277 275
289 289 288 287 288 289 288 287 288 288 286 284 283 281 279 278 278 278 279 279 279 278 278 279 280 280 279 279 278 279 279 280 279 279 280 279 278 276
289 289 290 289 289 289 287 287 287 287 287 285 283 281 279 276 276 276 277 278 278 277 277 277 279 280 280 280 278 277 278 278 278 279 279 279 277 276
291 290 290 290 289 289 288 287 286 286 287 287 287 284 280 277 275 275 276 277 278 278 278 278 279 279 280 280 280 281 281 280 280 281 281 280 278 278
292 291 291 291 290 289 288 286 286 286 287 287 288 288 285 282 278 275 275 276 276 278 279 279 280 280 280 279 280 281 282 281 281 282 281 281 280 279
294 293 292 292 291 290 290 289 288 287 287 286 286 286 285 284 281 279 277 277 276 276 278 278 278 279 279 279 279 279 281 279 279 281 283 283 282 280
296 296 295 293 292 291 291 290 288 287 286 285 285 284 284 284 282 281 280 281 281 279 278 277 277 278 279 278 278 278 277 278 278 278 279 281 282 281
296 296 295 294 293 291 290 290 289 288 287 286 285 284 284 283 282 281 280 281 281 282 281 280 280 281 281 279 278 279 278 279 279 279 280 281 282 281
297 297 297 296 296 295 293 291 289 288 287 287 286 284 284 285 284 281 280 279 280 281 281 280 280 281 282 281 280 279 280 280 280 281 282 283 283 283
299 299 299 299 298 298 295 292 290 288 287 287 286 285 284 284 284 282 280 280 280 280 281 281 281 282 283 281 280 280 280 280 280 281 281 283 282 281
300 300 300 300 300 298 297 294 292 290 288 288 286 284 283 283 283 282 281 282 282 282 282 282 283 284 284 282 281 280 281 282 282 281 281 282 281 280
299 300 301 301 302 301 298 296 294 291 289 289 288 284 281 281 282 282 282 283 283 284 284 284 284 286 286 283 282 282 281 280 280 280 280 280 279 279
298 298 299 300 301 301 300 299 298 295 292 290 288 286 283 281 282 283 284 285 285 285 285 284 284 285 285 284 283 282 280 279 279 279 281 281 279 278
Height
5858 5857 5856 5856 5856 5856 5855 5855 5855 5855 5855 5854 5854 5854 5853 5853 5853 5853 5852 5852 5851 5850 5849 5849 5848 5848 5847 5846 5846 5845 5845 5844 5844 5843 5843 5843 5842 5842
5855 5854 5853 5852 5851 5851 5851 5850 5849 5849 5849 5849 5849 5848 5848 5848 5848 5847 5847 5846 5845 5845 5844 5843 5843 5842 5841 5840 5840 5839 5838 5838 5838 5837 5837 5836 5836 5836
5850 5849 5848 5848 5847 5846 5845 5845 5844 5843 5843 5844 5843 5843 5842 5842 5842 5841 5841 5840 5840 5839 5838 5837 5837 5836 5835 5834 5833 5833 5832 5832 5832 5831 5831 5830 5830 5829
5846 5845 5844 5843 5842 5841 5840 5839 5838 5838 5838 5837 5837 5836 5836 5836 5835 5835 5834 5834 5833 5833 5832 5831 5830 5829 5829 5828 5827 5826 5826 5825 5825 5824 5824 5824 5823 5823
5841 5840 5839 5837 5836 5835 5834 5833 5832 5832 5831 5831 5830 5829 5829 5828 5828 5827 5827 5827 5826 5826 5825 5824 5824 5823 5822 5821 5820 5819 5819 5818 5817 5817 5816 5816 5815 5815
5835 5834 5833 5832 5830 5829 5828 5827 5826 5825 5824 5824 5823 5822 5822 5821 5820 5820 5820 5819 5818 5818 5818 5817 5816 5815 5815 5814 5813 5813 5812 5810 5809 5808 5808 5808 5807 5807
5828 5827 5826 5825 5824 5822 5821 5820 5819 5818 5817 5816 5815 5815 5814 5813 5813 5812 5812 5811 5810 5810 5809 5809 5808 5807 5807 5806 5805 5804 5804 5803 5801 5800 5800 5799 5799 5799
5821 5819 5818 5817 5816 5815 5813 5812 5811 5810 5809 5808 5807 5807 5806 5805 5804 5803 5803 5803 5803 5802 5801 5800 5799 5799 5798 5797 5796 5796 5795 5794 5793 5792 5791 5790 5790 5790
5813 5812 5811 5810 5808 5807 5805 5804 5803 5801 5801 5800 5799 5798 5797 5797 5796 5795 5794 5794 5794 5793 5792 5791 5790 5790 5789 5788 5787 5786 5785 5784 5783 5782 5781 5781 5780 5780
5805 5804 5803 5802 5800 5799 5797 5795 5794 5793 5792 5791 5790 5789 5788 5788 5787 5787 5786 5785 5784 5783 5783 5782 5782 5781 5780 5779 5778 5777 5776 5775 5774 5773 5772 5771 5770 5770
5797 5796 5795 5793 5792 5790 5789 5787 5786 5784 5782 5781 5780 5779 5779 5778 5778 5777 5777 5776 5776 5775 5774 5773 5773 5772 5771 5770 5769 5767 5766 5765 5764 5763 5762 5761 5760 5759
5789 5788 5786 5785 5783 5781 5780 5778 5777 5775 5773 5772 5771 5770 5769 5768 5768 5768 5767 5767 5766 5766 5765 5764 5763 5762 5761 5760 5759 5758 5757 5756 5755 5753 5752 5751 5750 5749
5781 5780 5778 5776 5774 5772 5770 5769 5767 5765 5764 5762 5761 5760 5759 5759 5758 5758 5757 5757 5756 5756 5756 5754 5753 5752 5751 5751 5750 5749 5748 5747 5745 5744 5743 5741 5740 5739
5773 5771 5769 5767 5765 5763 5761 5759 5757 5756 5755 5753 5752 5750 5749 5748 5748 5748 5747 5747 5746 5745 5745 5744 5743 5743 5742 5741 5740 5739 5738 5737 5736 5735 5733 5732 5730 5730
5764 5762 5760 5758 5756 5754 5752 5750 5748 5747 5745 5744 5742 5741 5739 5739 5738 5738 5737 5737 5736 5735 5735 5734 5733 5733 5732 5731 5730 5730 5729 5728 5726 5725 5724 5723 5721 5720
5755 5753 5751 5749 5747 5745 5743 5741 5739 5738 5736 5735 5733 5732 5731 5730 5729 5728 5728 5727 5727 5726 5725 5724 5723 5723 5722 5721 5721 5720 5719 5718 5717 5716 5714 5713 5712 5711
5747 5745 5743 5740 5738 5736 5734 5732 5731 5729 5727 5726 5724 5723 5722 5721 5720 5719 5719 5718 5718 5717 5716 5715 5714 5713 5712 5712 5711 5710 5709 5708 5707 5706 5705 5704 5703 5701
5738 5736 5734 5731 5729 5727 5725 5723 5721 5720 5718 5717 5715 5714 5713 5711 5710 5710 5709 5708 5708 5707 5707 5706 5705 5704 5703 5702 5701 5700 5699 5698 5697 5696 5695 5694 5693 5692
5730 5728 5725 5723 5720 5718 5716 5714 5712 5710 5709 5707 5706 5704 5703 5702 5701 5700 5699 5699 5698 5698 5697 5696 5695 5694 5694 5693 5692 5690 5689 5688 5687 5686 5685 5684 5683 5682
5722 5719 5717 5714 5712 5709 5707 5705 5703 5701 5699 5697 5695 5694 5693 5692 5691 5691 5690 5689 5688 5688 5687 5686 5685 5684 5683 5683 5682 5680 5679 5678 5677 5677 5676 5674 5673 5672
5713 5711 5708 5706 5703 5700 5698 5695 5693 5691 5689 5687 5685 5684 5683 5682 5682 5681 5680 5679 5678 5678 5677 5676 5674 5674 5673 5672 5671 5670 5669 5668 5667 5667 5666 5664 5663 5663
5705 5703 5700 5697 5694 5691 5689 5686 5683 5681 5679 5677 5675 5674 5673 5673 5672 5671 5670 5669 5668 5668 5667 5666 5664 5663 5662 5661 5660 5660 5659 5658 5657 5656 5655 5655 5654 5653
5697 5695 5692 5689 5686 5683 5680 5677 5674 5672 5670 5667 5666 5664 5663 5662 5662 5661 5661 5659 5658 5658 5656 5655 5654 5653 5652 5651 5650 5649 5649 5648 5647 5646 5646 5645 5644 5644